2020 TW3
ephemeris date magn radius delta ra dec elong phase
Today18 Oct 202528.73.410 AU3.355 AU19h29m-32°51'84.7°16.9°
2020 TW3 - 2025-10-18
astro.vanbuitenen.nl


 
-1 year
-1 month
-1 day
Now
+1 day
+1 month
+1 year

The interactive orbit chart above shows the body's path through the solar system and its position at the given date. Green and blue lines are shown perpendicular to the ecliptic plane: Green if the path is above the ecliptic plane, blue if it is below. (Left-click and drag to rotate the view; Right-click and drag to move the view; Use scroll wheel to zoom in our out.)

The orbital elements of 2020 TW3 are:

            e (Eccentricity)                : 0.6857889
            a (Semimajor axis)              : 2.0910682
            i (Inclination)                 : 10.82057
            Ω (Longitude of ascending node) : 28.70230
            ω (Argument of perihelion)      : 87.39225
            M (Mean anomaly)                : 164.46163
            Epoch                           : 2025 May 05

            L (Longitude of perihelion)     : 116.04741
            B (Latitude of perihelion)      : 10.80923
            P (Orbital period in years)     : 3.02            
        

The light curve chart below shows the estimated development of the minor planet's magnitude.


The all-sky chart below shows the path of the minor planet over the same period as the light curve. The current position is marked yellow.





The following chart shows the path of the minor planet in the next few days. The field of view is optimized for (~10x50) binoculars and finderscopes.




Ephemerides:
Date       Time       RA (2000)    DEC (2000)    delta   radius  elong  phase   PA    magn
2025-10-18 00:00 UT   19 29 58.4   -32 51 55     3.355    3.410   84.7   16.9    82   28.7 
2025-10-18 04:01 UT   19 30 03.2   -32 51 13     3.357    3.409   84.5   16.9    82   28.7 
2025-10-19 00:00 UT   19 30 27.5   -32 47 46     3.368    3.408   83.8   16.9    82   28.7 
2025-10-20 00:00 UT   19 30 57.7   -32 43 36     3.381    3.406   83.0   16.9    82   28.7 
2025-10-21 00:00 UT   19 31 29.1   -32 39 24     3.395    3.404   82.1   16.8    82   28.7 
2025-10-22 00:00 UT   19 32 01.5   -32 35 13     3.408    3.402   81.2   16.8    83   28.7 
2025-10-23 00:00 UT   19 32 35.0   -32 30 60     3.421    3.400   80.4   16.8    83   28.7 
2025-10-24 00:00 UT   19 33 09.5   -32 26 46     3.434    3.398   79.5   16.7    83   28.7 
2025-10-25 00:00 UT   19 33 45.1   -32 22 32     3.447    3.396   78.7   16.7    83   28.7 
2025-10-26 00:00 UT   19 34 21.6   -32 18 16     3.461    3.394   77.9   16.6    83   28.7 
2025-10-27 00:00 UT   19 34 59.2   -32 14 00     3.473    3.391   77.0   16.6    83   28.7 
2025-10-28 00:00 UT   19 35 37.8   -32 09 43     3.486    3.389   76.2   16.5    83   28.7 
2025-10-29 00:00 UT   19 36 17.3   -32 05 26     3.499    3.387   75.3   16.5    83   28.7 
2025-10-30 00:00 UT   19 36 57.8   -32 01 07     3.512    3.385   74.5   16.4    83   28.7 
2025-10-31 00:00 UT   19 37 39.2   -31 56 47     3.525    3.383   73.7   16.4    83   28.7 
2025-11-01 00:00 UT   19 38 21.5   -31 52 27     3.537    3.381   72.9   16.3    84   28.7 
2025-11-02 00:00 UT   19 39 04.7   -31 48 06     3.550    3.378   72.0   16.2    84   28.8 
2025-11-03 00:00 UT   19 39 48.8   -31 43 44     3.562    3.376   71.2   16.2    84   28.8 
2025-11-04 00:00 UT   19 40 33.7   -31 39 21     3.575    3.374   70.4   16.1    84   28.8 
2025-11-05 00:00 UT   19 41 19.5   -31 34 57     3.587    3.372   69.6   16.0    84   28.8 
2025-11-06 00:00 UT   19 42 06.1   -31 30 32     3.599    3.369   68.8   15.9    84   28.8 
2025-11-07 00:00 UT   19 42 53.6   -31 26 06     3.611    3.367   68.0   15.8    84   28.8 
2025-11-08 00:00 UT   19 43 41.8   -31 21 40     3.623    3.365   67.2   15.7    84   28.8 
2025-11-09 00:00 UT   19 44 30.9   -31 17 12     3.635    3.362   66.4   15.7    84   28.8 
2025-11-10 00:00 UT   19 45 20.7   -31 12 43     3.647    3.360   65.6   15.6    84   28.8 
2025-11-11 00:00 UT   19 46 11.3   -31 08 14     3.658    3.358   64.8   15.5    84   28.8 
2025-11-12 00:00 UT   19 47 02.7   -31 03 43     3.670    3.355   64.0   15.4    84   28.8 
2025-11-13 00:00 UT   19 47 54.8   -30 59 11     3.681    3.353   63.2   15.3    84   28.8 
2025-11-14 00:00 UT   19 48 47.7   -30 54 38     3.693    3.350   62.4   15.2    84   28.8 
2025-11-15 00:00 UT   19 49 41.3   -30 50 04     3.704    3.348   61.6   15.1    85   28.8 
2025-11-16 00:00 UT   19 50 35.5   -30 45 29     3.715    3.346   60.8   15.0    85   28.8 
2025-11-17 00:00 UT   19 51 30.5   -30 40 53     3.726    3.343   60.0   14.8    85   28.8 


    Terminology:
            
    delta:  distance between minor planet and earth in AU
    radius: distance between minor planet and sun in AU
    magn:   magnitude (brightness) estimate    
    ra:     right ascension in hours (24h = 360deg)
    dec:    declination in degrees
    elong:  elongation in degrees (angle sun-earth-minor planet)    
    phase:  phase angle in degrees (angle sun-minor planet-earth)        
    AU:     Astronomical Unit (mean distance between earth and sun: 149597870.7 km
    

Orbital elements provided by the MPC (Minor Planet Center).
Calculations by a modified version of AAPlus, a C# implementation of the AA+ project by PJ Naughter from the algorithms presented in the book "Astronomical Algorithms" by Jean Meeus.
NGC2000 dso catalog and star labels from VizieR as provided by the Strasbourg astronomical Data Center.
Tycho2 catalog from the ESO archive.